Regional Weather Roundup
Issued by NWS Austin/San Antonio, TX

Current Version | Previous Version | Text Only | Print | Product List | Glossary On
Versions: 1 2 3 4 5 6 7 8 9 10 11 12 13 14 15 16 17 18 19 20 21 22 23 24 25 26 27 28 29 30 31 32 33 34 35 36 37 38 39 40 41 42 43 44 45 46 47 48 49 50
000
ASUS44 KEWX 180202
RWREWX
SOUTH TEXAS REGIONAL WEATHER ROUNDUP
NATIONAL WEATHER SERVICE AUSTIN/SAN ANTONIO TX
900 PM CDT THU JUN 17 2021

NOTE: "FAIR" INDICATED FEW OR NO CLOUDS BELOW 12,000 FEET WITH NO
SIGNIFICANT WEATHER AND/OR OBSTRUCTIONS TO VISIBILITY.

* - THESE STATIONS ARE NOT NWS OR FAA STATIONS...AND ARE NOT SUBJECT
    TO NWS AND FAA QUALITY CONTROL.

TXZ171-172-183>190-180300-
TEXAS HILL COUNTRY AND EDWARDS PLATEAU

CITY           SKY/WX    TMP DP  RH WIND       PRES   REMARKS
JUNCTION       PTCLDY    87  64  46 SE13      30.00R
*LLANO         CLEAR     81  64  57 CALM      29.96S
BURNET         CLEAR     85  64  49 CALM      30.00R
*HORSESHOE BAY CLEAR     84  65  51 S3        29.98R
*LAGO VISTA    CLEAR     83  58  43 CALM      29.99R
*KERRVILLE     CLEAR     82  67  61 E3        30.01R
*FREDERICKSBRG PTCLDY    82  63  51 CALM      30.01S
*ROCKSPRINGS     N/A     82  63  51 MISG      30.08R
*BOERNE        CLEAR     82  63  51 SE3       29.99S
*CASTROVILLE   CLEAR     88  65  46 CALM      29.96S HAZE
HONDO          CLEAR     85  66  53 SE5       29.96R
*UVALDE        CLEAR     83  66  55 E5        29.98R
DEL RIO        CLEAR     94  62  34 SE8       29.93R HX  94
*LAUGHLIN AFB  CLEAR     91  61  37 SE12      29.93R HX  90
*SPOFFORD      CLEAR     89  60  37 E8        29.89R
*EAGLE PASS    CLEAR     90  57  33 E8        29.93R
CARRIZO SPRGS  PTCLDY    88  63  42 SE6       29.92S
$$

TXZ173-191>194-202-209-217>225-228-180300-
CENTRAL AND SOUTH CENTRAL TEXAS

CITY           SKY/WX    TMP DP  RH WIND       PRES   REMARKS
GEORGETOWN     CLEAR     87  70  56 E9        29.98R HX  92
*TAYLOR        MOCLDY    85  71  61 SE9       29.96R HX  90
AUSTIN/BERGSTM PTCLDY    85  68  56 E7        29.94R
AUSTIN/MABRY   CLEAR     89  65  44 SE7       29.96R HX  91
*PFLUGERVILLE  CLEAR     86  68  54 CALM      29.94S
SAN MARCOS     PTCLDY    84  74  71 SE3       29.95S HX  91
NEW BRAUNFELS  PTCLDY    85  71  63 SE3       29.93S HX  90
*RANDOLPH AFB  CLEAR     84  70  63 E5        29.93S
*SEGUIN        CLEAR     84  69  59 SE3       29.98R
SAN ANTONIO    PTCLDY    84  67  56 E5        29.95S
STINSON FIELD  CLEAR     89  71  55 SE5       29.92S HX  95
*KELLY FIELD   CLEAR     87  69  53 E6        29.93S HX  91
*PLEASANTON    CLEAR     85  71  62 S5        29.95R HX  90
*KENEDY        CLEAR     82  72  70 CALM      29.95S
*LA GRANGE     MOCLDY    83  75  75 CALM      29.93S HX  90
*GIDDINGS      PTCLDY    81  73  75 CALM      29.96R
*GONZALES      PTCLDY    86  73  64 E3        29.93R HX  93
$$

TXZ163>164-176>182-195>201-210>213-226-227-235-180300-
SOUTHEAST TEXAS

CITY           SKY/WX    TMP DP  RH WIND       PRES   REMARKS
COLLEGE STN    PTCLDY    85  73  67 SE5       29.95R HX  91
*BRYAN         PTCLDY    83  74  75 CALM      29.97R HX  90
*CALDWELL      PTCLDY    82  74  77 CALM      29.95S
*CROCKETT      PTCLDY    79  73  83 CALM      29.96S
*BRENHAM       PTCLDY    85  74  71 E3        29.95S HX  92
HUNTSVILLE     CLEAR     84  72  67 CALM      29.96R
CONROE         CLEAR     79  74  84 CALM      29.96R
HOUSTON BUSH   PTCLDY    82  68  62 NE6       29.94R
HOUSTON HOBBY  PTCLDY    85  65  51 SE10      29.94R
*HOUSTON SW AP CLEAR     80  67  64 SE3       29.95R
PEARLAND       CLEAR     84  66  54 SE5       29.96R
HOUSTON HOOKS  CLEAR     85  71  63 E5        29.94R HX  90
ELLINGTON FLD  PTCLDY    82  70  65 SE8       29.94R
SUGAR LAND     PTCLDY    87  68  52 SE16      29.94R HX  90
*HOUSTON EXEC  NOT AVBL
*CLEVELAND MUN CLEAR     76  73  89 CALM      29.96R
*WHARTON         N/A     81  69  67 E3        29.94S
*COLUMBUS      MOCLDY    83  73  70 CALM      29.95R
*EAGLE LAKE    NOT AVBL
$$

TXZ214>216-236>238-180300-
THE UPPER TEXAS COAST

CITY           SKY/WX    TMP DP  RH WIND       PRES   REMARKS
*ORANGE        CLEAR     82  63  52 CALM      29.97R
PORT ARTHUR    CLEAR     82  64  54 E8        29.94R
GALVESTON      CLEAR     86  64  47 E12       29.94R
ANGLETON       CLEAR     81  65  58 E3        29.94R
*BAY CITY      MOCLDY    80  69  69 E6        29.93S
PALACIOS       MOCLDY    83  70  64 E12G30    29.92R
$$

TXZ229>234-239>247-180300-
TEXAS COASTAL BEND AND RIO GRANDE PLAINS

CITY           SKY/WX    TMP DP  RH WIND       PRES   REMARKS
VICTORIA       MOCLDY    83  74  74 SE6       29.93R
*BEEVILLE      MOCLDY    78  78 100 SE3       29.93S
ROCKPORT       PTCLDY    86  71  60 E13       29.91S HX  91
*PORT ARANSAS  MOCLDY    86  71  60 E13G20    29.93S HX  91
*PORT LAVACA   MOCLDY    86  72  62 E10       29.93R HX  92
*INGLESIDE     PTCLDY    87  74  66 E9        29.91S HX  95
CORPUS CHRISTI MOCLDY    85  73  67 E8        29.92S HX  91
CORPUS NAS     MOCLDY    86  76  71 E10       29.91S HX  96
*ROBSTOWN      PTCLDY    86  73  63 E3        29.93S HX  93
ALICE          PTCLDY    81  70  69 SE5       29.93R
KINGSVILLE NAS MOCLDY    82  73  74 SE5       29.92S
COTULLA        PTCLDY    88  67  49 S7        29.93S HX  91
LAREDO         PTCLDY    88  69  53 SE15      29.93R HX  92
$$

TXZ248>255-180300-
DEEP SOUTH TEXAS

CITY           SKY/WX    TMP DP  RH WIND       PRES   REMARKS
BROWNSVILLE    PTCLDY    83  72  69 NE5       29.91R
PORT ISABEL    PTCLDY    83  72  69 NE5       29.91R
HARLINGEN      MOCLDY    81  77  88 NE5       29.91R
*HEBBRONVILLE  MOCLDY    82  62  51 SE3       29.96S
MCALLEN        MOCLDY    85  70  60 E5        29.92R
*WESLACO       MOCLDY    83  72  68 E5        29.91S
FALFURRIAS     PTCLDY    79  70  73 CALM      29.92S
EDINBURG       PTCLDY    83  73  70 CALM      29.92S
*ZAPATA        PTCLDY    90  67  47 E7        29.95R HX  93
$$

TXZ213>215-236>238-242>244-246-247-251-254-255-180300-
CMAN STATIONS

STATION/POSITION TIME  TEMP    WIND        PRES    WAVE
                       AIR SEA DIR/SP/G            HT/PER
                 (UTC) (F)     (DEG/KT/KT) (MB)    (FT/S)
NORTH JETTY/GLS  0130   85 87  100/ 18/ 20 1012.6
EAGLE POINT      0130   85 88  110/ 12/ 14 1013.5
MORGANS POINT    0124   85 86  130/ 11/ 14 1013.9
MISSION/ARANSAS  0100   87      80/ 12     1014.0
PORT O`CONNOR    0130   85 91   90/ 16/ 19 1012.7
PORT ARANSAS     0100   86 87   70/ 15/ 17   N/A
MALAQUITE BEACH  0130   85      30/  9/ 10   N/A
BAFFIN BAY       0130   84 90   60/  8/  9 1012.5
PORT ISABEL      0130   84 85   30/  8/ 10 1013.7
$$



USA.gov is the U.S. government's official web portal to all federal, state and local government web resources and services.